Time,TemperatureF,DewpointF,PressureIn,WindDirection,WindDirectionDegrees,WindSpeedMPH,WindSpeedGustMPH,Humidity,HourlyPrecipIn,Conditions,Clouds,dailyrainin,SolarRadiationWatts/m^2,SoftwareType,DateUTC
2013-09-18 00:01:00,47.9,45.7,30.27,North,9,0.0,0.0,92,0.00,SKC,,0.00,0.0,WeatherDisplay:10.37,2013-09-18 04:01:00,
2013-09-18 00:06:00,47.7,45.5,30.27,North,9,0.0,0.0,92,0.00,SKC,,0.00,0.0,WeatherDisplay:10.37,2013-09-18 04:06:00,
2013-09-18 00:11:00,47.6,45.4,30.27,North,9,0.0,0.0,92,0.00,SKC,,0.00,0.0,WeatherDisplay:10.37,2013-09-18 04:11:00,
2013-09-18 00:16:00,47.6,45.4,30.26,North,9,0.0,0.0,92,0.00,SKC,,0.00,0.0,WeatherDisplay:10.37,2013-09-18 04:16:00,
2013-09-18 00:21:00,47.5,45.3,30.26,North,9,0.0,0.0,92,0.00,SKC,,0.00,0.0,WeatherDisplay:10.37,2013-09-18 04:21:00,
2013-09-18 00:26:00,47.3,45.1,30.26,North,9,0.0,0.0,92,0.00,SKC,,0.00,0.0,WeatherDisplay:10.37,2013-09-18 04:26:00,
2013-09-18 00:31:00,47.3,45.1,30.25,North,9,0.0,0.0,92,0.00,SKC,,0.00,0.0,WeatherDisplay:10.37,2013-09-18 04:31:00,
2013-09-18 00:41:00,47.1,44.9,30.25,North,9,0.0,0.0,92,0.00,SKC,,0.00,0.0,WeatherDisplay:10.37,2013-09-18 04:41:00,
2013-09-18 00:46:00,47.0,44.8,30.25,North,9,0.0,0.0,92,0.00,SKC,,0.00,0.0,WeatherDisplay:10.37,2013-09-18 04:46:00,
2013-09-18 00:51:00,46.9,44.7,30.25,North,9,0.0,0.0,92,0.00,SKC,,0.00,0.0,WeatherDisplay:10.37,2013-09-18 04:51:00,
2013-09-18 00:56:00,46.8,44.6,30.25,North,9,0.0,0.0,92,0.00,SKC,,0.00,0.0,WeatherDisplay:10.37,2013-09-18 04:56:00,
2013-09-18 01:01:00,46.9,44.7,30.25,North,9,0.0,0.0,92,0.00,SKC,,0.00,0.0,WeatherDisplay:10.37,2013-09-18 05:01:00,
2013-09-18 01:06:00,47.0,44.8,30.25,North,9,0.0,0.0,92,0.00,SKC,,0.00,0.0,WeatherDisplay:10.37,2013-09-18 05:06:00,
2013-09-18 01:11:00,46.8,44.6,30.25,North,9,0.0,0.0,92,0.00,SKC,,0.00,0.0,WeatherDisplay:10.37,2013-09-18 05:11:00,
2013-09-18 01:16:00,46.5,44.3,30.25,North,9,0.0,0.0,92,0.00,SKC,,0.00,0.0,WeatherDisplay:10.37,2013-09-18 05:16:00,
2013-09-18 01:21:00,46.4,44.2,30.25,North,9,0.0,0.0,92,0.00,SKC,,0.00,0.0,WeatherDisplay:10.37,2013-09-18 05:21:00,
2013-09-18 01:26:00,46.4,44.2,30.25,North,9,0.0,0.0,92,0.00,SKC,,0.00,0.0,WeatherDisplay:10.37,2013-09-18 05:26:00,
2013-09-18 01:31:00,46.1,43.9,30.25,North,9,0.0,0.0,92,0.00,SKC,,0.00,0.0,WeatherDisplay:10.37,2013-09-18 05:31:00,
2013-09-18 01:41:00,45.9,43.7,30.25,North,9,0.0,0.0,92,0.00,SKC,,0.00,0.0,WeatherDisplay:10.37,2013-09-18 05:41:00,
2013-09-18 01:46:00,45.9,44.0,30.25,North,9,0.0,0.0,93,0.00,SKC,,0.00,0.0,WeatherDisplay:10.37,2013-09-18 05:46:00,
2013-09-18 01:51:00,46.1,44.2,30.25,North,9,0.0,0.0,93,0.00,SKC,,0.00,0.0,WeatherDisplay:10.37,2013-09-18 05:51:00,
2013-09-18 01:56:00,46.1,44.2,30.25,North,9,0.0,0.0,93,0.00,SKC,,0.00,0.0,WeatherDisplay:10.37,2013-09-18 05:56:00,
2013-09-18 02:01:00,46.1,43.9,30.25,North,9,0.0,0.0,92,0.00,SKC,,0.00,0.0,WeatherDisplay:10.37,2013-09-18 06:01:00,
2013-09-18 02:06:00,45.8,43.6,30.25,North,9,0.0,0.0,92,0.00,SKC,,0.00,0.0,WeatherDisplay:10.37,2013-09-18 06:06:00,
2013-09-18 02:11:00,45.8,43.9,30.25,North,9,0.0,0.0,93,0.00,SKC,,0.00,0.0,WeatherDisplay:10.37,2013-09-18 06:11:00,
2013-09-18 02:16:00,45.6,43.7,30.25,North,9,0.0,0.0,93,0.00,SKC,,0.00,0.0,WeatherDisplay:10.37,2013-09-18 06:16:00,
2013-09-18 02:21:00,45.6,43.7,30.25,North,9,0.0,0.0,93,0.00,SKC,,0.00,0.0,WeatherDisplay:10.37,2013-09-18 06:21:00,
2013-09-18 02:31:00,45.9,44.0,30.25,North,9,0.0,0.0,93,0.00,SKC,,0.00,0.0,WeatherDisplay:10.37,2013-09-18 06:31:00,
2013-09-18 02:36:00,45.9,44.0,30.25,North,9,0.0,0.0,93,0.00,SKC,,0.00,0.0,WeatherDisplay:10.37,2013-09-18 06:36:00,
2013-09-18 02:41:00,45.9,44.0,30.25,North,9,0.0,0.0,93,0.00,SKC,,0.00,0.0,WeatherDisplay:10.37,2013-09-18 06:41:00,
2013-09-18 02:46:00,45.9,43.7,30.24,North,9,0.0,0.0,92,0.00,SKC,,0.00,0.0,WeatherDisplay:10.37,2013-09-18 06:46:00,
2013-09-18 02:51:00,45.8,43.6,30.24,North,9,0.0,0.0,92,0.00,SKC,,0.00,0.0,WeatherDisplay:10.37,2013-09-18 06:51:00,
2013-09-18 02:56:00,45.8,43.6,30.24,North,9,0.0,0.0,92,0.00,SKC,,0.00,0.0,WeatherDisplay:10.37,2013-09-18 06:56:00,
2013-09-18 03:01:00,45.8,43.6,30.24,North,9,0.0,0.0,92,0.00,SKC,,0.00,0.0,WeatherDisplay:10.37,2013-09-18 07:01:00,
2013-09-18 03:06:00,45.6,43.4,30.24,North,9,0.0,0.0,92,0.00,SKC,,0.00,0.0,WeatherDisplay:10.37,2013-09-18 07:06:00,
2013-09-18 03:11:00,45.5,43.3,30.24,North,9,0.0,0.0,92,0.00,SKC,,0.00,0.0,WeatherDisplay:10.37,2013-09-18 07:11:00,
2013-09-18 03:16:00,45.5,43.3,30.24,North,9,0.0,0.0,92,0.00,SKC,,0.00,0.0,WeatherDisplay:10.37,2013-09-18 07:16:00,
2013-09-18 03:21:00,45.5,43.3,30.24,North,9,0.0,0.0,92,0.00,SKC,,0.00,0.0,WeatherDisplay:10.37,2013-09-18 07:21:00,
2013-09-18 03:26:00,45.3,43.1,30.24,North,9,0.0,0.0,92,0.00,SKC,,0.00,0.0,WeatherDisplay:10.37,2013-09-18 07:26:00,
2013-09-18 03:31:00,45.3,43.4,30.24,North,9,0.0,0.0,93,0.00,SKC,,0.00,0.0,WeatherDisplay:10.37,2013-09-18 07:31:00,
2013-09-18 03:41:00,45.3,43.4,30.24,North,9,0.0,0.0,93,0.00,SKC,,0.00,0.0,WeatherDisplay:10.37,2013-09-18 07:41:00,
2013-09-18 03:46:00,45.2,43.3,30.23,North,9,0.0,0.0,93,0.00,SKC,,0.00,0.0,WeatherDisplay:10.37,2013-09-18 07:46:00,
2013-09-18 03:51:00,45.2,43.3,30.23,North,9,0.0,0.0,93,0.00,SKC,,0.00,0.0,WeatherDisplay:10.37,2013-09-18 07:51:00,
2013-09-18 03:56:00,45.0,43.1,30.23,North,9,0.0,0.0,93,0.00,SKC,,0.00,0.0,WeatherDisplay:10.37,2013-09-18 07:56:00,
2013-09-18 04:01:00,44.9,43.0,30.23,North,9,0.0,0.0,93,0.00,SKC,,0.00,0.0,WeatherDisplay:10.37,2013-09-18 08:01:00,
2013-09-18 04:06:00,44.9,43.0,30.23,North,9,0.0,0.0,93,0.00,OVC,,0.00,0.0,WeatherDisplay:10.37,2013-09-18 08:06:00,
2013-09-18 04:11:00,44.9,43.0,30.23,North,9,0.0,0.0,93,0.00,OVC,,0.00,0.0,WeatherDisplay:10.37,2013-09-18 08:11:00,
2013-09-18 04:16:00,44.9,43.0,30.23,North,9,0.0,0.0,93,0.00,OVC,,0.00,0.0,WeatherDisplay:10.37,2013-09-18 08:16:00,
2013-09-18 04:21:00,45.0,43.1,30.23,North,9,0.0,0.0,93,0.00,SCT,,0.00,0.0,WeatherDisplay:10.37,2013-09-18 08:21:00,
2013-09-18 04:26:00,44.9,43.0,30.23,North,9,0.0,0.0,93,0.00,SCT,,0.00,0.0,WeatherDisplay:10.37,2013-09-18 08:26:00,
2013-09-18 04:31:00,44.8,42.9,30.22,North,9,0.0,0.0,93,0.00,SCT,,0.00,0.0,WeatherDisplay:10.37,2013-09-18 08:31:00,
2013-09-18 04:36:00,44.7,42.8,30.22,North,9,0.0,0.0,93,0.00,SCT,,0.00,0.0,WeatherDisplay:10.37,2013-09-18 08:36:00,
2013-09-18 04:41:00,44.8,43.2,30.22,North,9,0.0,0.0,94,0.00,SCT,,0.00,0.0,WeatherDisplay:10.37,2013-09-18 08:41:00,
2013-09-18 04:46:00,44.8,43.2,30.23,North,9,0.0,0.0,94,0.00,SCT,,0.00,0.0,WeatherDisplay:10.37,2013-09-18 08:46:00,
2013-09-18 04:51:00,44.8,43.2,30.23,North,9,0.0,0.0,94,0.00,BKN,,0.00,0.0,WeatherDisplay:10.37,2013-09-18 08:51:00,
2013-09-18 04:56:00,44.6,43.0,30.23,North,9,0.0,0.0,94,0.00,BKN,,0.00,0.0,WeatherDisplay:10.37,2013-09-18 08:56:00,
2013-09-18 05:01:00,44.5,42.9,30.23,North,9,0.0,0.0,94,0.00,BKN,,0.00,0.0,WeatherDisplay:10.37,2013-09-18 09:01:00,
2013-09-18 05:06:00,44.3,42.7,30.23,North,9,0.0,0.0,94,0.00,BKN,,0.00,0.0,WeatherDisplay:10.37,2013-09-18 09:06:00,
2013-09-18 05:11:00,44.5,42.9,30.23,North,9,0.0,0.0,94,0.00,BKN,,0.00,0.0,WeatherDisplay:10.37,2013-09-18 09:11:00,
2013-09-18 05:16:00,44.3,42.7,30.22,North,9,0.0,0.0,94,0.00,BKN,,0.00,0.0,WeatherDisplay:10.37,2013-09-18 09:16:00,
2013-09-18 05:21:00,44.5,42.9,30.22,North,9,0.0,0.0,94,0.00,BKN,,0.00,0.0,WeatherDisplay:10.37,2013-09-18 09:21:00,
2013-09-18 05:26:00,44.6,43.0,30.22,North,9,0.0,0.0,94,0.00,BKN,,0.00,0.0,WeatherDisplay:10.37,2013-09-18 09:26:00,
2013-09-18 05:31:00,44.5,42.9,30.23,North,9,0.0,0.0,94,0.00,BKN,,0.00,0.0,WeatherDisplay:10.37,2013-09-18 09:31:00,
2013-09-18 05:36:00,44.2,42.6,30.23,North,9,0.0,0.0,94,0.00,BKN,,0.00,0.0,WeatherDisplay:10.37,2013-09-18 09:36:00,
2013-09-18 05:41:00,44.0,42.4,30.23,North,9,0.0,0.0,94,0.00,BKN,,0.00,0.0,WeatherDisplay:10.37,2013-09-18 09:41:00,
2013-09-18 05:46:00,43.9,42.3,30.23,North,9,0.0,0.0,94,0.00,BKN,,0.00,0.0,WeatherDisplay:10.37,2013-09-18 09:46:00,
2013-09-18 05:51:00,44.2,42.9,30.23,North,9,0.0,0.0,95,0.00,BKN,,0.00,0.0,WeatherDisplay:10.37,2013-09-18 09:51:00,
2013-09-18 05:56:00,44.3,42.7,30.23,North,9,0.0,0.0,94,0.00,BKN,,0.00,0.0,WeatherDisplay:10.37,2013-09-18 09:56:00,
2013-09-18 06:01:00,44.3,42.7,30.23,North,9,0.0,0.0,94,0.00,BKN,,0.00,0.0,WeatherDisplay:10.37,2013-09-18 10:01:00,
2013-09-18 06:06:00,44.3,42.6,30.23,North,9,0.0,0.0,94,0.00,BKN,,0.00,0.0,WeatherDisplay:10.37,2013-09-18 10:06:00,
2013-09-18 06:11:00,44.0,42.4,30.23,North,9,0.0,0.0,94,0.00,BKN,,0.00,0.0,WeatherDisplay:10.37,2013-09-18 10:11:00,
2013-09-18 06:16:00,43.9,42.3,30.23,North,9,0.0,0.0,94,0.00,BKN,,0.00,0.0,WeatherDisplay:10.37,2013-09-18 10:16:00,
2013-09-18 06:21:00,43.6,42.0,30.23,North,9,0.0,0.0,94,0.00,SCT,,0.00,0.0,WeatherDisplay:10.37,2013-09-18 10:21:00,
2013-09-18 06:26:00,43.4,41.8,30.23,North,9,0.0,0.0,94,0.00,SCT,,0.00,0.0,WeatherDisplay:10.37,2013-09-18 10:26:00,
2013-09-18 06:36:00,43.6,42.0,30.23,North,9,0.0,0.0,94,0.00,SCT,,0.00,0.0,WeatherDisplay:10.37,2013-09-18 10:36:00,
2013-09-18 06:41:00,43.6,42.3,30.23,North,9,0.0,0.0,95,0.00,SCT,,0.00,0.0,WeatherDisplay:10.37,2013-09-18 10:41:00,
2013-09-18 06:46:00,43.7,42.4,30.23,North,9,0.0,0.0,95,0.00,SCT,,0.00,0.0,WeatherDisplay:10.37,2013-09-18 10:46:00,
2013-09-18 06:51:00,43.6,42.0,30.23,North,9,0.0,0.0,94,0.00,SCT,,0.00,0.0,WeatherDisplay:10.37,2013-09-18 10:51:00,
2013-09-18 06:56:00,43.6,42.0,30.23,North,9,0.0,0.0,94,0.00,SCT,,0.00,0.0,WeatherDisplay:10.37,2013-09-18 10:56:00,
2013-09-18 07:01:00,43.3,41.7,30.23,North,9,0.0,0.0,94,0.00,SCT,,0.00,0.0,WeatherDisplay:10.37,2013-09-18 11:01:00,
2013-09-18 07:06:00,43.3,41.7,30.23,North,9,0.0,0.0,94,0.00,FEW,,0.00,0.0,WeatherDisplay:10.37,2013-09-18 11:06:00,
2013-09-18 07:11:00,43.2,41.8,30.23,North,9,0.0,0.0,95,0.00,FEW,,0.00,0.0,WeatherDisplay:10.37,2013-09-18 11:11:00,
2013-09-18 07:16:00,43.3,42.0,30.23,North,9,0.0,0.0,95,0.00,FEW,,0.00,0.0,WeatherDisplay:10.37,2013-09-18 11:16:00,
2013-09-18 07:21:00,43.4,42.1,30.23,North,9,0.0,0.0,95,0.00,FEW,,0.00,0.0,WeatherDisplay:10.37,2013-09-18 11:21:00,
2013-09-18 07:26:00,43.4,42.1,30.23,North,9,0.0,0.0,95,0.00,FEW,,0.00,0.0,WeatherDisplay:10.37,2013-09-18 11:26:00,
2013-09-18 07:31:00,43.5,42.2,30.24,North,9,0.0,0.0,95,0.00,FEW,,0.00,0.0,WeatherDisplay:10.37,2013-09-18 11:31:00,
2013-09-18 07:36:00,43.7,42.4,30.24,North,9,0.0,0.0,95,0.00,FEW,,0.00,0.0,WeatherDisplay:10.37,2013-09-18 11:36:00,
2013-09-18 07:41:00,43.9,42.6,30.24,North,9,0.0,0.0,95,0.00,FEW,,0.00,0.0,WeatherDisplay:10.37,2013-09-18 11:41:00,
2013-09-18 07:46:00,44.0,42.7,30.24,North,9,0.0,0.0,95,0.00,FEW,,0.00,0.0,WeatherDisplay:10.37,2013-09-18 11:46:00,
2013-09-18 07:51:00,44.3,42.9,30.24,North,9,0.0,0.0,95,0.00,SCT,,0.00,0.0,WeatherDisplay:10.37,2013-09-18 11:51:00,
2013-09-18 07:56:00,44.6,43.3,30.24,North,9,0.0,0.0,95,0.00,SCT,,0.00,0.0,WeatherDisplay:10.37,2013-09-18 11:56:00,
2013-09-18 08:01:00,45.2,44.1,30.24,North,9,0.0,0.0,96,0.00,SCT,,0.00,0.0,WeatherDisplay:10.37,2013-09-18 12:01:00,
2013-09-18 08:06:00,45.5,44.4,30.24,North,8,0.0,0.0,96,0.00,SCT,,0.00,0.0,WeatherDisplay:10.37,2013-09-18 12:06:00,
2013-09-18 08:11:00,45.9,44.8,30.24,North,9,0.0,0.0,96,0.00,SCT,,0.00,0.0,WeatherDisplay:10.37,2013-09-18 12:11:00,
2013-09-18 08:16:00,46.6,45.5,30.24,North,10,0.0,0.0,96,0.00,SCT,,0.00,0.0,WeatherDisplay:10.37,2013-09-18 12:16:00,
2013-09-18 08:21:00,47.2,46.1,30.24,North,11,0.0,0.0,96,0.00,FEW,,0.00,0.0,WeatherDisplay:10.37,2013-09-18 12:21:00,
2013-09-18 08:26:00,47.6,46.5,30.24,North,11,0.0,0.0,96,0.00,FEW,,0.00,0.0,WeatherDisplay:10.37,2013-09-18 12:26:00,
2013-09-18 08:31:00,47.9,46.5,30.23,North,11,0.0,0.0,95,0.00,FEW,,0.00,0.0,WeatherDisplay:10.37,2013-09-18 12:31:00,
2013-09-18 08:36:00,48.3,47.2,30.23,NNE,17,0.0,4.0,96,0.00,FEW,,0.00,0.0,WeatherDisplay:10.37,2013-09-18 12:36:00,
2013-09-18 08:41:00,48.7,47.7,30.23,NNE,24,0.0,0.0,96,0.00,FEW,,0.00,0.0,WeatherDisplay:10.37,2013-09-18 12:41:00,
2013-09-18 08:46:00,49.7,48.6,30.22,NNE,24,0.0,0.0,96,0.00,FEW,,0.00,0.0,WeatherDisplay:10.37,2013-09-18 12:46:00,
2013-09-18 08:51:00,50.7,49.3,30.22,NNE,24,0.0,0.0,95,0.00,FEW,,0.00,0.0,WeatherDisplay:10.37,2013-09-18 12:51:00,
2013-09-18 08:56:00,51.5,49.9,30.22,NNE,24,0.0,0.0,94,0.00,FEW,,0.00,0.0,WeatherDisplay:10.37,2013-09-18 12:56:00,
2013-09-18 09:01:00,52.1,50.1,30.22,NNE,24,0.0,0.0,93,0.00,FEW,,0.00,0.0,WeatherDisplay:10.37,2013-09-18 13:01:00,
2013-09-18 09:06:00,52.4,50.2,30.22,NNE,24,0.0,0.0,92,0.00,FEW,,0.00,0.0,WeatherDisplay:10.37,2013-09-18 13:06:00,
2013-09-18 09:11:00,52.9,50.4,30.22,NNE,26,0.0,0.0,91,0.00,FEW,,0.00,0.0,WeatherDisplay:10.37,2013-09-18 13:11:00,
2013-09-18 09:16:00,53.3,50.5,30.22,NNE,28,0.0,0.0,90,0.00,FEW,,0.00,0.0,WeatherDisplay:10.37,2013-09-18 13:16:00,
2013-09-18 09:21:00,53.9,50.7,30.22,NNE,28,0.0,0.0,89,0.00,FEW,,0.00,0.0,WeatherDisplay:10.37,2013-09-18 13:21:00,
2013-09-18 09:26:00,54.7,51.2,30.22,NNE,28,0.0,0.0,88,0.00,FEW,,0.00,0.0,WeatherDisplay:10.37,2013-09-18 13:26:00,
2013-09-18 09:36:00,56.1,51.0,30.22,NNE,28,0.0,0.0,83,0.00,FEW,,0.00,0.0,WeatherDisplay:10.37,2013-09-18 13:36:00,
2013-09-18 09:41:00,56.6,51.2,30.22,NNE,28,0.0,0.0,82,0.00,FEW,,0.00,0.0,WeatherDisplay:10.37,2013-09-18 13:41:00,
2013-09-18 09:46:00,57.2,51.4,30.22,NNE,28,0.0,1.0,81,0.00,FEW,,0.00,0.0,WeatherDisplay:10.37,2013-09-18 13:46:00,
2013-09-18 09:51:00,57.8,51.6,30.22,NNE,28,0.0,1.0,80,0.00,FEW,,0.00,0.0,WeatherDisplay:10.37,2013-09-18 13:51:00,
2013-09-18 10:01:00,59.9,49.7,30.22,ESE,111,0.0,3.0,69,0.00,FEW,,0.00,0.0,WeatherDisplay:10.37,2013-09-18 14:01:00,
2013-09-18 10:06:00,60.8,49.8,30.22,ESE,117,0.0,2.0,67,0.00,FEW,,0.00,0.0,WeatherDisplay:10.37,2013-09-18 14:06:00,
2013-09-18 10:11:00,61.5,49.7,30.22,SSE,148,0.0,3.0,65,0.00,FEW,,0.00,0.0,WeatherDisplay:10.37,2013-09-18 14:11:00,
2013-09-18 10:16:00,62.2,49.9,30.22,SSE,165,1.0,3.0,64,0.00,FEW,,0.00,0.0,WeatherDisplay:10.37,2013-09-18 14:16:00,
2013-09-18 10:21:00,62.7,49.9,30.22,SSE,165,0.0,1.0,63,0.00,FEW,,0.00,0.0,WeatherDisplay:10.37,2013-09-18 14:21:00,
2013-09-18 10:26:00,62.8,51.3,30.22,NW,305,3.0,6.0,66,0.00,FEW,,0.00,0.0,WeatherDisplay:10.37,2013-09-18 14:26:00,
2013-09-18 10:31:00,62.5,53.3,30.22,NW,323,0.0,5.0,72,0.00,FEW,,0.00,88.0,WeatherDisplay:10.37,2013-09-18 14:31:00,
2013-09-18 10:41:00,62.0,54.0,30.22,NW,316,3.0,7.0,75,0.00,FEW,,0.00,0.0,WeatherDisplay:10.37,2013-09-18 14:41:00,
2013-09-18 10:46:00,61.9,53.9,30.22,NW,316,2.0,4.0,75,0.00,FEW,,0.00,0.0,WeatherDisplay:10.37,2013-09-18 14:46:00,
2013-09-18 10:51:00,61.5,53.5,30.22,NW,326,3.0,6.0,75,0.00,FEW,,0.00,0.0,WeatherDisplay:10.37,2013-09-18 14:51:00,
2013-09-18 11:01:00,61.2,53.6,30.21,NNW,331,3.0,5.0,76,0.00,FEW,,0.00,42.0,WeatherDisplay:10.37,2013-09-18 15:01:00,
2013-09-18 11:06:00,61.2,53.9,30.21,NNW,334,3.0,5.0,77,0.00,FEW,,0.00,0.0,WeatherDisplay:10.37,2013-09-18 15:06:00,
2013-09-18 11:11:00,61.2,53.9,30.21,NNW,336,1.0,6.0,77,0.00,FEW,,0.00,156.0,WeatherDisplay:10.37,2013-09-18 15:11:00,
2013-09-18 11:16:00,61.4,53.4,30.21,NNW,336,2.0,5.0,75,0.00,FEW,,0.00,0.0,WeatherDisplay:10.37,2013-09-18 15:16:00,
2013-09-18 11:21:00,61.4,53.8,30.21,NNW,344,1.0,4.0,76,0.00,FEW,,0.00,0.0,WeatherDisplay:10.37,2013-09-18 15:21:00,
2013-09-18 11:26:00,62.0,54.3,30.21,NNW,331,3.0,5.0,76,0.00,FEW,,0.00,0.0,WeatherDisplay:10.37,2013-09-18 15:26:00,
2013-09-18 11:36:00,62.8,53.6,30.21,North,353,2.0,4.0,72,0.00,FEW,,0.00,0.0,WeatherDisplay:10.37,2013-09-18 15:36:00,
2013-09-18 11:46:00,64.0,53.6,30.20,NNW,336,1.0,5.0,69,0.00,FEW,,0.00,37.0,WeatherDisplay:10.37,2013-09-18 15:46:00,
2013-09-18 11:51:00,64.6,54.6,30.20,NNW,330,1.0,5.0,70,0.00,FEW,,0.00,0.0,WeatherDisplay:10.37,2013-09-18 15:51:00,
2013-09-18 11:56:00,64.6,53.4,30.20,North,350,1.0,5.0,67,0.00,FEW,,0.00,0.0,WeatherDisplay:10.37,2013-09-18 15:56:00,
2013-09-18 12:01:00,64.6,53.4,30.20,North,1,1.0,5.0,67,0.00,FEW,,0.00,23.0,WeatherDisplay:10.37,2013-09-18 16:01:00,
2013-09-18 12:06:00,64.8,54.0,30.20,NNW,347,2.0,5.0,68,0.00,FEW,,0.00,0.0,WeatherDisplay:10.37,2013-09-18 16:06:00,
2013-09-18 12:11:00,65.1,53.9,30.20,NNW,341,2.0,7.0,67,0.00,FEW,,0.00,0.0,WeatherDisplay:10.37,2013-09-18 16:11:00,
2013-09-18 12:16:00,65.2,54.0,30.20,NNW,333,1.0,6.0,67,0.00,FEW,,0.00,0.0,WeatherDisplay:10.37,2013-09-18 16:16:00,
2013-09-18 12:21:00,65.6,53.1,30.20,NNW,334,1.0,4.0,64,0.00,SCT,,0.00,0.0,WeatherDisplay:10.37,2013-09-18 16:21:00,
2013-09-18 12:26:00,65.9,54.2,30.20,NNW,339,0.0,6.0,66,0.00,SCT,,0.00,0.0,WeatherDisplay:10.37,2013-09-18 16:26:00,
2013-09-18 12:31:00,66.2,53.2,30.19,NNW,330,0.0,5.0,63,0.00,SCT,,0.00,0.0,WeatherDisplay:10.37,2013-09-18 16:31:00,
2013-09-18 12:36:00,66.1,53.2,30.19,North,360,2.0,6.0,63,0.00,SCT,,0.00,0.0,WeatherDisplay:10.37,2013-09-18 16:36:00,
2013-09-18 12:41:00,66.1,53.1,30.19,North,1,2.0,5.0,63,0.00,SCT,,0.00,0.0,WeatherDisplay:10.37,2013-09-18 16:41:00,
2013-09-18 12:46:00,66.3,52.0,30.19,North,353,2.0,5.0,60,0.00,SCT,,0.00,47.0,WeatherDisplay:10.37,2013-09-18 16:46:00,
2013-09-18 12:51:00,67.1,52.8,30.19,NNW,342,1.0,5.0,60,0.00,SCT,,0.00,183.0,WeatherDisplay:10.37,2013-09-18 16:51:00,
2013-09-18 12:56:00,67.7,54.2,30.19,NNW,337,2.0,6.0,62,0.00,SCT,,0.00,628.0,WeatherDisplay:10.37,2013-09-18 16:56:00,
2013-09-18 13:01:00,67.9,53.0,30.18,North,358,1.0,8.0,59,0.00,SCT,,0.00,638.0,WeatherDisplay:10.37,2013-09-18 17:01:00,
2013-09-18 13:06:00,67.9,54.0,30.18,North,11,1.0,5.0,61,0.00,SCT,,0.00,635.0,WeatherDisplay:10.37,2013-09-18 17:06:00,
2013-09-18 13:11:00,67.7,52.9,30.18,NNE,19,2.0,5.0,59,0.00,SCT,,0.00,605.0,WeatherDisplay:10.37,2013-09-18 17:11:00,
2013-09-18 13:21:00,67.7,50.5,30.17,North,9,1.0,5.0,54,0.00,SCT,,0.00,559.0,WeatherDisplay:10.37,2013-09-18 17:21:00,
2013-09-18 13:26:00,67.9,50.6,30.17,North,5,3.0,6.0,54,0.00,SCT,,0.00,617.0,WeatherDisplay:10.37,2013-09-18 17:26:00,
2013-09-18 13:31:00,68.1,50.3,30.17,North,11,1.0,5.0,53,0.00,SCT,,0.00,619.0,WeatherDisplay:10.37,2013-09-18 17:31:00,
2013-09-18 13:41:00,68.4,50.6,30.17,NNE,14,3.0,8.0,53,0.00,SCT,,0.00,636.0,WeatherDisplay:10.37,2013-09-18 17:41:00,
2013-09-18 13:46:00,68.6,50.3,30.16,North,11,2.0,8.0,52,0.00,SCT,,0.00,638.0,WeatherDisplay:10.37,2013-09-18 17:46:00,
2013-09-18 13:56:00,68.7,51.4,30.16,North,5,2.0,8.0,54,0.00,SCT,,0.00,635.0,WeatherDisplay:10.37,2013-09-18 17:56:00,
2013-09-18 14:01:00,69.0,50.7,30.15,NNE,12,0.0,9.0,52,0.00,SCT,,0.00,636.0,WeatherDisplay:10.37,2013-09-18 18:01:00,
2013-09-18 14:06:00,69.1,51.2,30.15,NNE,13,1.0,10.0,53,0.00,SCT,,0.00,631.0,WeatherDisplay:10.37,2013-09-18 18:06:00,
2013-09-18 14:11:00,69.1,51.2,30.15,NNE,15,1.0,4.0,53,0.00,SCT,,0.00,647.0,WeatherDisplay:10.37,2013-09-18 18:11:00,
2013-09-18 14:21:00,69.1,51.3,30.14,NNE,13,0.0,10.0,53,0.00,SCT,,0.00,657.0,WeatherDisplay:10.37,2013-09-18 18:21:00,
2013-09-18 14:26:00,69.7,51.3,30.14,NNE,12,1.0,7.0,52,0.00,SCT,,0.00,679.0,WeatherDisplay:10.37,2013-09-18 18:26:00,
2013-09-18 14:31:00,70.2,50.7,30.13,NNE,19,1.0,7.0,50,0.00,SCT,,0.00,654.0,WeatherDisplay:10.37,2013-09-18 18:31:00,
2013-09-18 14:41:00,72.0,50.7,30.13,NNE,23,2.0,5.0,47,0.00,SCT,,0.00,708.0,WeatherDisplay:10.37,2013-09-18 18:41:00,
2013-09-18 14:51:00,72.7,51.3,30.13,NNE,17,0.0,2.0,47,0.00,SCT,,0.00,675.0,WeatherDisplay:10.37,2013-09-18 18:51:00,
2013-09-18 15:01:00,72.1,52.4,30.12,NNE,21,1.0,4.0,50,0.00,SCT,,0.00,566.0,WeatherDisplay:10.37,2013-09-18 19:01:00,
2013-09-18 15:11:00,71.8,52.2,30.12,NE,34,0.0,4.0,50,0.00,SCT,,0.00,322.0,WeatherDisplay:10.37,2013-09-18 19:11:00,
2013-09-18 15:21:00,72.5,52.2,30.12,ESE,105,0.0,4.0,49,0.00,SCT,,0.00,499.0,WeatherDisplay:10.37,2013-09-18 19:21:00,
2013-09-18 15:31:00,72.4,51.6,30.12,ENE,76,0.0,4.0,48,0.00,SCT,,0.00,318.0,WeatherDisplay:10.37,2013-09-18 19:31:00,
2013-09-18 15:36:00,72.1,50.8,30.12,ENE,63,0.0,2.0,47,0.00,SCT,,0.00,357.0,WeatherDisplay:10.37,2013-09-18 19:36:00,
2013-09-18 15:46:00,71.8,51.1,30.11,NNE,13,0.0,7.0,48,0.00,SCT,,0.00,427.0,WeatherDisplay:10.37,2013-09-18 19:46:00,
2013-09-18 15:51:00,71.5,44.5,30.11,ESE,106,3.0,7.0,38,0.00,SCT,,0.00,128.0,WeatherDisplay:10.37,2013-09-18 19:51:00,
2013-09-18 15:56:00,71.5,44.5,30.11,SSE,166,1.0,3.0,38,0.00,SCT,,0.00,473.0,WeatherDisplay:10.37,2013-09-18 19:56:00,
2013-09-18 16:01:00,71.8,44.1,30.11,South,191,0.0,6.0,37,0.00,SCT,,0.00,452.0,WeatherDisplay:10.37,2013-09-18 20:01:00,
2013-09-18 16:06:00,71.8,41.9,30.11,SSW,193,2.0,9.0,34,0.00,SCT,,0.00,432.0,WeatherDisplay:10.37,2013-09-18 20:06:00,
2013-09-18 16:16:00,71.8,41.1,30.11,SSE,158,1.0,5.0,33,0.00,SCT,,0.00,403.0,WeatherDisplay:10.37,2013-09-18 20:16:00,
2013-09-18 16:21:00,71.9,41.3,30.11,SSE,151,0.0,5.0,33,0.00,FEW,,0.00,396.0,WeatherDisplay:10.37,2013-09-18 20:21:00,
2013-09-18 16:26:00,71.6,40.2,30.11,SSE,153,2.0,5.0,32,0.00,FEW,,0.00,383.0,WeatherDisplay:10.37,2013-09-18 20:26:00,
2013-09-18 16:36:00,71.6,41.7,30.11,SE,144,1.0,7.0,34,0.00,FEW,,0.00,360.0,WeatherDisplay:10.37,2013-09-18 20:36:00,
2013-09-18 16:41:00,71.5,40.9,30.11,SE,142,2.0,7.0,33,0.00,FEW,,0.00,346.0,WeatherDisplay:10.37,2013-09-18 20:41:00,
2013-09-18 16:46:00,71.5,40.1,30.11,SE,143,0.0,5.0,32,0.00,FEW,,0.00,334.0,WeatherDisplay:10.37,2013-09-18 20:46:00,
2013-09-18 16:56:00,72.1,38.9,30.11,SSE,166,1.0,4.0,30,0.00,FEW,,0.00,308.0,WeatherDisplay:10.37,2013-09-18 20:56:00,
2013-09-18 17:01:00,71.8,40.3,30.10,South,172,0.0,4.0,32,0.00,FEW,,0.00,292.0,WeatherDisplay:10.37,2013-09-18 21:01:00,
2013-09-18 17:06:00,72.1,40.6,30.10,SSE,168,0.0,3.0,32,0.00,FEW,,0.00,278.0,WeatherDisplay:10.37,2013-09-18 21:06:00,
2013-09-18 17:11:00,72.0,40.5,30.10,South,187,1.0,5.0,32,0.00,FEW,,0.00,265.0,WeatherDisplay:10.37,2013-09-18 21:11:00,
2013-09-18 17:16:00,72.5,38.4,30.10,SW,224,3.0,9.0,29,0.00,FEW,,0.00,251.0,WeatherDisplay:10.37,2013-09-18 21:16:00,
2013-09-18 17:21:00,73.0,38.9,30.10,SW,226,1.0,5.0,29,0.00,FEW,,0.00,239.0,WeatherDisplay:10.37,2013-09-18 21:21:00,
2013-09-18 17:31:00,72.7,38.6,30.10,SSW,211,1.0,4.0,29,0.00,FEW,,0.00,211.0,WeatherDisplay:10.37,2013-09-18 21:31:00,
2013-09-18 17:36:00,72.5,38.4,30.10,SW,214,0.0,2.0,29,0.00,FEW,,0.00,192.0,WeatherDisplay:10.37,2013-09-18 21:36:00,
2013-09-18 17:41:00,72.3,37.4,30.10,SSW,213,0.0,2.0,28,0.00,FEW,,0.00,178.0,WeatherDisplay:10.37,2013-09-18 21:41:00,
2013-09-18 17:51:00,72.3,37.4,30.10,SSW,213,0.0,1.0,28,0.00,FEW,,0.00,142.0,WeatherDisplay:10.37,2013-09-18 21:51:00,
2013-09-18 17:56:00,72.5,38.4,30.10,SW,217,1.0,4.0,29,0.00,FEW,,0.00,125.0,WeatherDisplay:10.37,2013-09-18 21:56:00,
2013-09-18 18:01:00,72.6,38.5,30.09,SW,221,1.0,5.0,29,0.00,FEW,,0.00,111.0,WeatherDisplay:10.37,2013-09-18 22:01:00,
2013-09-18 18:06:00,73.0,38.0,30.09,SW,224,0.0,3.0,28,0.00,FEW,,0.00,91.0,WeatherDisplay:10.37,2013-09-18 22:06:00,
2013-09-18 18:11:00,73.2,39.0,30.09,SW,225,0.0,4.0,29,0.00,FEW,,0.00,77.0,WeatherDisplay:10.37,2013-09-18 22:11:00,
2013-09-18 18:16:00,73.2,39.0,30.09,SW,225,0.0,4.0,29,0.00,FEW,,0.00,70.0,WeatherDisplay:10.37,2013-09-18 22:16:00,
2013-09-18 18:21:00,73.0,38.9,30.09,SW,225,0.0,3.0,29,0.00,FEW,,0.00,42.0,WeatherDisplay:10.37,2013-09-18 22:21:00,
2013-09-18 18:31:00,72.8,40.4,30.09,SW,227,0.0,2.0,31,0.00,FEW,,0.00,12.0,WeatherDisplay:10.37,2013-09-18 22:31:00,
2013-09-18 18:41:00,72.3,41.6,30.09,SW,227,0.0,0.0,33,0.00,FEW,,0.00,0.0,WeatherDisplay:10.37,2013-09-18 22:41:00,
2013-09-18 18:46:00,72.3,41.6,30.09,SW,227,0.0,0.0,33,0.00,FEW,,0.00,0.0,WeatherDisplay:10.37,2013-09-18 22:46:00,
2013-09-18 18:51:00,72.0,42.9,30.09,SW,227,0.0,0.0,35,0.00,FEW,,0.00,0.0,WeatherDisplay:10.37,2013-09-18 22:51:00,
2013-09-18 18:56:00,71.2,42.9,30.09,SW,227,0.0,0.0,36,0.00,FEW,,0.00,0.0,WeatherDisplay:10.37,2013-09-18 22:56:00,
2013-09-18 19:06:00,70.2,44.7,30.09,SW,227,0.0,0.0,40,0.00,FEW,,0.00,0.0,WeatherDisplay:10.37,2013-09-18 23:06:00,
2013-09-18 19:11:00,69.6,44.9,30.09,SW,227,0.0,0.0,41,0.00,FEW,,0.00,0.0,WeatherDisplay:10.37,2013-09-18 23:11:00,
2013-09-18 19:16:00,69.1,44.4,30.08,SW,227,0.0,0.0,41,0.00,FEW,,0.00,0.0,WeatherDisplay:10.37,2013-09-18 23:16:00,
2013-09-18 19:26:00,67.8,47.4,30.08,SW,227,0.0,0.0,48,0.00,FEW,,0.00,0.0,WeatherDisplay:10.37,2013-09-18 23:26:00,
2013-09-18 19:31:00,67.1,47.3,30.08,SW,227,0.0,0.0,49,0.00,FEW,,0.00,0.0,WeatherDisplay:10.37,2013-09-18 23:31:00,
2013-09-18 19:41:00,65.4,47.3,30.08,SW,227,0.0,0.0,52,0.00,FEW,,0.00,0.0,WeatherDisplay:10.37,2013-09-18 23:41:00,
2013-09-18 19:46:00,64.8,47.3,30.09,SW,227,0.0,0.0,53,0.00,FEW,,0.00,0.0,WeatherDisplay:10.37,2013-09-18 23:46:00,
2013-09-18 19:51:00,64.0,48.0,30.09,SW,227,0.0,0.0,56,0.00,FEW,,0.00,0.0,WeatherDisplay:10.37,2013-09-18 23:51:00,
2013-09-18 20:01:00,62.6,47.6,30.09,SW,227,0.0,0.0,58,0.00,FEW,,0.00,0.0,WeatherDisplay:10.37,2013-09-19 00:01:00,
2013-09-18 20:06:00,62.0,47.5,30.09,SW,227,0.0,0.0,59,0.00,FEW,,0.00,0.0,WeatherDisplay:10.37,2013-09-19 00:06:00,
2013-09-18 20:16:00,61.1,47.5,30.09,SW,227,0.0,0.0,61,0.00,FEW,,0.00,0.0,WeatherDisplay:10.37,2013-09-19 00:16:00,
2013-09-18 20:21:00,60.8,47.7,30.09,SW,227,0.0,0.0,62,0.00,FEW,,0.00,0.0,WeatherDisplay:10.37,2013-09-19 00:21:00,
2013-09-18 20:26:00,60.4,47.7,30.09,SW,227,0.0,0.0,63,0.00,FEW,,0.00,0.0,WeatherDisplay:10.37,2013-09-19 00:26:00,
2013-09-18 20:31:00,60.1,47.5,30.09,SW,227,0.0,0.0,63,0.00,FEW,,0.00,0.0,WeatherDisplay:10.37,2013-09-19 00:31:00,
2013-09-18 20:36:00,60.0,47.4,30.09,SW,227,0.0,0.0,63,0.00,FEW,,0.00,0.0,WeatherDisplay:10.37,2013-09-19 00:36:00,
2013-09-18 20:41:00,59.7,47.1,30.09,SW,227,0.0,0.0,63,0.00,FEW,,0.00,0.0,WeatherDisplay:10.37,2013-09-19 00:41:00,
2013-09-18 20:46:00,59.5,47.3,30.09,SW,227,0.0,0.0,64,0.00,FEW,,0.00,0.0,WeatherDisplay:10.37,2013-09-19 00:46:00,
2013-09-18 20:51:00,59.2,47.4,30.09,SW,227,0.0,0.0,65,0.00,FEW,,0.00,0.0,WeatherDisplay:10.37,2013-09-19 00:51:00,
2013-09-18 20:56:00,59.0,47.6,30.09,SW,227,0.0,0.0,66,0.00,FEW,,0.00,0.0,WeatherDisplay:10.37,2013-09-19 00:56:00,
2013-09-18 21:01:00,58.7,47.4,30.09,SW,227,0.0,0.0,66,0.00,FEW,,0.00,0.0,WeatherDisplay:10.37,2013-09-19 01:01:00,
2013-09-18 21:11:00,58.6,47.7,30.09,SW,227,0.0,0.0,67,0.00,FEW,,0.00,0.0,WeatherDisplay:10.37,2013-09-19 01:11:00,
2013-09-18 21:16:00,58.4,47.5,30.10,SW,227,0.0,0.0,67,0.00,FEW,,0.00,0.0,WeatherDisplay:10.37,2013-09-19 01:16:00,
2013-09-18 21:21:00,58.4,47.9,30.10,SW,227,0.0,0.0,68,0.00,FEW,,0.00,0.0,WeatherDisplay:10.37,2013-09-19 01:21:00,
2013-09-18 21:26:00,58.4,48.2,30.10,SW,227,0.0,0.0,69,0.00,FEW,,0.00,0.0,WeatherDisplay:10.37,2013-09-19 01:26:00,
2013-09-18 21:31:00,58.4,48.3,30.10,SW,227,0.0,0.0,69,0.00,FEW,,0.00,0.0,WeatherDisplay:10.37,2013-09-19 01:31:00,
2013-09-18 21:36:00,58.3,48.6,30.10,SW,227,0.0,0.0,70,0.00,FEW,,0.00,0.0,WeatherDisplay:10.37,2013-09-19 01:36:00,
2013-09-18 21:41:00,58.1,48.4,30.10,SW,227,0.0,0.0,70,0.00,FEW,,0.00,0.0,WeatherDisplay:10.37,2013-09-19 01:41:00,
2013-09-18 21:46:00,58.0,48.6,30.10,SW,227,0.0,0.0,71,0.00,FEW,,0.00,0.0,WeatherDisplay:10.37,2013-09-19 01:46:00,
2013-09-18 21:51:00,57.8,48.8,30.10,SW,227,0.0,0.0,72,0.00,FEW,,0.00,0.0,WeatherDisplay:10.37,2013-09-19 01:51:00,
2013-09-18 22:01:00,57.7,49.1,30.10,SW,227,0.0,0.0,73,0.00,FEW,,0.00,0.0,WeatherDisplay:10.37,2013-09-19 02:01:00,
2013-09-18 22:06:00,57.7,49.5,30.10,SW,227,0.0,0.0,74,0.00,FEW,,0.00,0.0,WeatherDisplay:10.37,2013-09-19 02:06:00,
2013-09-18 22:11:00,57.8,49.2,30.10,SW,227,0.0,0.0,73,0.00,FEW,,0.00,0.0,WeatherDisplay:10.37,2013-09-19 02:11:00,
2013-09-18 22:16:00,58.0,49.4,30.09,SW,227,0.0,0.0,73,0.00,FEW,,0.00,0.0,WeatherDisplay:10.37,2013-09-19 02:16:00,
2013-09-18 22:21:00,58.0,49.4,30.09,SW,227,0.0,0.0,73,0.00,SKC,,0.00,0.0,WeatherDisplay:10.37,2013-09-19 02:21:00,
2013-09-18 22:26:00,57.8,49.2,30.09,SW,227,0.0,0.0,73,0.00,SKC,,0.00,0.0,WeatherDisplay:10.37,2013-09-19 02:26:00,
2013-09-18 22:31:00,57.7,49.1,30.10,SW,227,0.0,0.0,73,0.00,SKC,,0.00,0.0,WeatherDisplay:10.37,2013-09-19 02:31:00,
2013-09-18 22:41:00,57.5,48.9,30.10,SW,227,0.0,0.0,73,0.00,SKC,,0.00,0.0,WeatherDisplay:10.37,2013-09-19 02:41:00,
2013-09-18 22:46:00,57.4,48.8,30.09,SW,227,0.0,0.0,73,0.00,SKC,,0.00,0.0,WeatherDisplay:10.37,2013-09-19 02:46:00,
2013-09-18 22:51:00,57.4,48.8,30.09,SW,227,0.0,0.0,73,0.00,SKC,,0.00,0.0,WeatherDisplay:10.37,2013-09-19 02:51:00,
2013-09-18 22:56:00,57.4,48.8,30.09,SW,227,0.0,0.0,73,0.00,SKC,,0.00,0.0,WeatherDisplay:10.37,2013-09-19 02:56:00,
2013-09-18 23:01:00,57.2,48.3,30.10,SW,227,0.0,0.0,72,0.00,SKC,,0.00,0.0,WeatherDisplay:10.37,2013-09-19 03:01:00,
2013-09-18 23:06:00,57.2,48.6,30.10,SW,227,0.0,0.0,73,0.00,SKC,,0.00,0.0,WeatherDisplay:10.37,2013-09-19 03:06:00,
2013-09-18 23:16:00,57.2,47.9,30.09,SW,227,0.0,0.0,71,0.00,SKC,,0.00,0.0,WeatherDisplay:10.37,2013-09-19 03:16:00,
2013-09-18 23:21:00,57.4,48.0,30.09,SW,227,0.0,0.0,71,0.00,SKC,,0.00,0.0,WeatherDisplay:10.37,2013-09-19 03:21:00,
2013-09-18 23:26:00,57.2,47.9,30.09,SW,227,0.0,0.0,71,0.00,SKC,,0.00,0.0,WeatherDisplay:10.37,2013-09-19 03:26:00,
2013-09-18 23:31:00,57.1,47.8,30.09,SW,227,0.0,0.0,71,0.00,SKC,,0.00,0.0,WeatherDisplay:10.37,2013-09-19 03:31:00,
2013-09-18 23:36:00,56.9,47.6,30.09,SW,227,0.0,0.0,71,0.00,SKC,,0.00,0.0,WeatherDisplay:10.37,2013-09-19 03:36:00,
2013-09-18 23:41:00,56.6,47.7,30.09,SW,227,0.0,0.0,72,0.00,SKC,,0.00,0.0,WeatherDisplay:10.37,2013-09-19 03:41:00,
2013-09-18 23:51:00,56.6,47.7,30.09,SW,227,0.0,0.0,72,0.00,SKC,,0.00,0.0,WeatherDisplay:10.37,2013-09-19 03:51:00,